,,Stat6,,Stat2,,Stat8,,Stat9,,Stat10,,Wind1,,Wind1,
time,status,PA1M_AVG,status,PR1M_SUM,status,RH1M_AVG,status,SR1M_AVG,status,TA1M_AVG,status,W1dAve1m,status,W1sAve1m,
2005-06-10, 00:00:00,VALID,915.979,VALID,0,VALID,97.4253,VALID,0.0169808,VALID,20.4944,VALID,196,VALID,0.497142,
2005-06-10, 00:01:00,VALID,915.964,VALID,0,VALID,97.2727,VALID,0.0169808,VALID,20.51,VALID,184,VALID,0.194568,
2005-06-10, 00:02:00,VALID,915.94,VALID,0,VALID,96.9751,VALID,0,VALID,20.507,VALID,184,VALID,0.0888158,
2005-06-10, 00:03:00,VALID,915.943,VALID,0,VALID,96.8085,VALID,0,VALID,20.4909,VALID,180,VALID,0.295387,
2005-06-10, 00:04:00,VALID,915.949,VALID,0,VALID,96.7513,VALID,0,VALID,20.4648,VALID,124,VALID,0.593023,
2005-06-10, 00:05:00,VALID,915.938,VALID,0,VALID,96.7984,VALID,0,VALID,20.4327,VALID,121,VALID,0.104297,
2005-06-10, 00:06:00,VALID,915.952,VALID,0,VALID,97.0234,VALID,-0.0169808,VALID,20.4231,VALID,121,VALID,0.230078,
2005-06-10, 00:07:00,VALID,915.944,VALID,0,VALID,97.1137,VALID,0,VALID,20.4196,VALID,128,VALID,0.395712,
2005-06-10, 00:08:00,VALID,915.944,VALID,0,VALID,97.382,VALID,0,VALID,20.4489,VALID,160,VALID,0.623285,
2005-06-10, 00:09:00,VALID,915.945,VALID,0,VALID,97.2599,VALID,-0.0169808,VALID,20.4814,VALID,162,VALID,0.565104,
2005-06-10, 00:10:00,VALID,915.945,VALID,0,VALID,96.9344,VALID,0.0339617,VALID,20.5294,VALID,121,VALID,0.537287,
2005-06-10, 00:11:00,VALID,915.933,VALID,0,VALID,96.6801,VALID,0,VALID,20.5649,VALID,127,VALID,0.254573,
2005-06-10, 00:12:00,VALID,915.943,VALID,0,VALID,96.3787,VALID,0,VALID,20.6139,VALID,126,VALID,0.310454,
2005-06-10, 00:13:00,VALID,915.937,VALID,0,VALID,95.8269,VALID,0,VALID,20.6136,VALID,75,VALID,0.453835,
2005-06-10, 00:14:00,VALID,915.94,VALID,0,VALID,95.5522,VALID,-0.0169808,VALID,20.5714,VALID,63,VALID,0.951069,
2005-06-10, 00:15:00,VALID,915.924,VALID,0,VALID,95.9769,VALID,0,VALID,20.5299,VALID,78,VALID,0.769259,
2005-06-10, 00:16:00,VALID,915.898,VALID,0,VALID,96.2503,VALID,0,VALID,20.5038,VALID,138,VALID,1.17169,
2005-06-10, 00:17:00,VALID,915.881,VALID,0,VALID,95.907,VALID,0.0169808,VALID,20.5843,VALID,154,VALID,1.55299,
2005-06-10, 00:18:00,VALID,915.855,VALID,0,VALID,94.8414,VALID,0,VALID,20.7848,VALID,147,VALID,1.27439,
2005-06-10, 00:19:00,VALID,915.865,VALID,0,VALID,93.8749,VALID,0.0169808,VALID,20.9336,VALID,94,VALID,1.24328,
2005-06-10, 00:20:00,VALID,915.844,VALID,0,VALID,93.7071,VALID,0,VALID,21.0044,VALID,106,VALID,1.02017,
2005-06-10, 00:21:00,VALID,915.815,VALID,0,VALID,93.6371,VALID,0,VALID,21.03,VALID,122,VALID,0.960156,
2005-06-10, 00:22:00,VALID,915.794,VALID,0,VALID,93.2226,VALID,0.0169808,VALID,21.1008,VALID,113,VALID,1.21893,
2005-06-10, 00:23:00,VALID,915.772,VALID,0,VALID,92.7063,VALID,0.0509425,VALID,21.2014,VALID,82,VALID,1.42113,
2005-06-10, 00:24:00,VALID,915.756,VALID,0,VALID,92.5003,VALID,0,VALID,21.2434,VALID,86,VALID,0.745028,
2005-06-10, 00:25:00,VALID,915.733,VALID,0,VALID,92.7292,VALID,0.0169808,VALID,21.2337,VALID,84,VALID,0.913336,
2005-06-10, 00:26:00,VALID,915.733,VALID,0,VALID,92.953,VALID,0.0169808,VALID,21.1912,VALID,87,VALID,0.606889,
2005-06-10, 00:27:00,VALID,915.729,VALID,0,VALID,93.4935,VALID,0,VALID,21.1624,VALID,118,VALID,0.796875,
2005-06-10, 00:28:00,VALID,915.733,VALID,0,VALID,94.0008,VALID,0.0169808,VALID,21.1083,VALID,93,VALID,0.834121,
2005-06-10, 00:29:00,VALID,915.738,VALID,0,VALID,93.8177,VALID,0.0679233,VALID,20.9751,VALID,39,VALID,1.8931,
2005-06-10, 00:30:00,VALID,915.728,VALID,0,VALID,94.6735,VALID,0.0679233,VALID,20.8036,VALID,52,VALID,0.961523,
2005-06-10, 00:31:00,VALID,915.721,VALID,0,VALID,95.3551,VALID,0.0169808,VALID,20.7008,VALID,53,VALID,0.831174,
2005-06-10, 00:32:00,VALID,915.708,VALID,0,VALID,95.7213,VALID,0.0169808,VALID,20.6069,VALID,44,VALID,0.614025,
2005-06-10, 00:33:00,VALID,915.718,VALID,0,VALID,95.9871,VALID,0.0169808,VALID,20.5326,VALID,44,VALID,0.522485,
2005-06-10, 00:34:00,VALID,915.701,VALID,0,VALID,96.1727,VALID,0.0679233,VALID,20.4844,VALID,44,VALID,0.317769,
2005-06-10, 00:35:00,VALID,915.679,VALID,0,VALID,96.4207,VALID,0,VALID,20.4196,VALID,44,VALID,0.263579,
2005-06-10, 00:36:00,VALID,915.671,VALID,0,VALID,96.942,VALID,0.0339617,VALID,20.3776,VALID,62,VALID,0.808333,
2005-06-10, 00:37:00,VALID,915.656,VALID,0,VALID,97.3617,VALID,0,VALID,20.3326,VALID,78,VALID,0.743096,
2005-06-10, 00:38:00,VALID,915.647,VALID,0,VALID,97.7571,VALID,-0.0849042,VALID,20.2855,VALID,105,VALID,0.752204,
2005-06-10, 00:39:00,VALID,915.63,VALID,0,VALID,98.0789,VALID,-0.101885,VALID,20.2599,VALID,132,VALID,0.73473,
2005-06-10, 00:40:00,VALID,915.646,VALID,0,VALID,98.2251,VALID,-0.101885,VALID,20.2432,VALID,132,VALID,0.520712,
2005-06-10, 00:41:00,VALID,915.653,VALID,0,VALID,98.2442,VALID,-0.0339617,VALID,20.2177,VALID,139,VALID,0.993924,
2005-06-10, 00:42:00,VALID,915.631,VALID,0,VALID,98.515,VALID,-0.0849042,VALID,20.1918,VALID,162,VALID,0.875,
2005-06-10, 00:43:00,VALID,915.628,VALID,0,VALID,98.8088,VALID,-0.0849042,VALID,20.1821,VALID,162,VALID,0.762767,
2005-06-10, 00:44:00,VALID,915.631,VALID,0,VALID,98.9537,VALID,-0.101885,VALID,20.1498,VALID,138,VALID,0.906808,
2005-06-10, 00:45:00,VALID,915.618,VALID,0,VALID,99.2144,VALID,-0.101885,VALID,20.1272,VALID,160,VALID,0.700335,
2005-06-10, 00:46:00,VALID,915.618,VALID,0,VALID,99.381,VALID,-0.118866,VALID,20.1151,VALID,148,VALID,0.653646,
2005-06-10, 00:47:00,VALID,915.597,VALID,0,VALID,99.4624,VALID,-0.101885,VALID,20.0726,VALID,146,VALID,0.346657,
2005-06-10, 00:48:00,VALID,915.572,VALID,0,VALID,99.6722,VALID,-0.0849042,VALID,20.0497,VALID,146,VALID,0.293713,
2005-06-10, 00:49:00,VALID,915.55,VALID,0,VALID,99.8044,VALID,-0.101885,VALID,20.053,VALID,150,VALID,0.670379,
2005-06-10, 00:50:00,VALID,915.502,VALID,0,VALID,99.8553,VALID,-0.0849042,VALID,20.05,VALID,163,VALID,0.665737,
2005-06-10, 00:51:00,VALID,915.477,VALID,0,VALID,99.9316,VALID,-0.0679233,VALID,20.0597,VALID,164,VALID,0.296689,
2005-06-10, 00:52:00,VALID,915.456,VALID,0,VALID,99.8286,VALID,-0.0679233,VALID,20.0532,VALID,164,VALID,0.188672,
2005-06-10, 00:53:00,VALID,915.44,VALID,0,VALID,99.7485,VALID,0,VALID,20.0455,VALID,161,VALID,0.48609,
2005-06-10, 00:54:00,VALID,915.419,VALID,0,VALID,99.8515,VALID,0.0169808,VALID,20.0321,VALID,160,VALID,0.660714,
2005-06-10, 00:55:00,VALID,915.413,VALID,0,VALID,99.9593,VALID,0.0169808,VALID,20.0559,VALID,159,VALID,0.66311,
2005-06-10, 00:56:00,VALID,915.409,VALID,0,VALID,100,VALID,0.0169808,VALID,20.0942,VALID,160,VALID,0.655678,
2005-06-10, 00:57:00,VALID,915.407,VALID,0,VALID,99.8438,VALID,-0.0169808,VALID,20.1655,VALID,161,VALID,0.242001,
2005-06-10, 00:58:00,VALID,915.399,VALID,0,VALID,99.3085,VALID,0,VALID,20.2169,VALID,161,VALID,0.230646,
2005-06-10, 00:59:00,VALID,915.39,VALID,0,VALID,99.0707,VALID,-0.0169808,VALID,20.246,VALID,166,VALID,0.638579,
2005-06-10, 01:00:00,VALID,915.38,VALID,0,VALID,98.8978,VALID,0,VALID,20.3138,VALID,168,VALID,0.714844,
2005-06-10, 01:01:00,VALID,915.373,VALID,0,VALID,98.6638,VALID,0,VALID,20.3614,VALID,168,VALID,0.251563,
2005-06-10, 01:02:00,VALID,915.355,VALID,0,VALID,98.3014,VALID,0,VALID,20.4198,VALID,168,VALID,0.0843395,
2005-06-10, 01:03:00,VALID,915.338,VALID,0,VALID,97.7584,VALID,0,VALID,20.4166,VALID,168,VALID,0.0555753,
2005-06-10, 01:04:00,VALID,915.353,VALID,0,VALID,97.6058,VALID,0,VALID,20.4104,VALID,151,VALID,0.214844,
2005-06-10, 01:05:00,VALID,915.33,VALID,0,VALID,97.5461,VALID,0,VALID,20.3875,VALID,115,VALID,0.0427827,
2005-06-10, 01:06:00,VALID,915.331,VALID,0,VALID,97.691,VALID,0,VALID,20.3821,VALID,115,VALID,0.00111607,
2005-06-10, 01:07:00,VALID,915.331,VALID,0,VALID,97.8309,VALID,0,VALID,20.3873,VALID,115,VALID,0,
2005-06-10, 01:08:00,VALID,915.31,VALID,0,VALID,97.8334,VALID,-0.0169808,VALID,20.3908,VALID,115,VALID,0,
2005-06-10, 01:09:00,VALID,915.311,VALID,0,VALID,97.8296,VALID,-0.0169808,VALID,20.4069,VALID,115,VALID,0.218924,
2005-06-10, 01:10:00,VALID,915.289,VALID,0,VALID,97.6236,VALID,-0.0339617,VALID,20.4079,VALID,110,VALID,0.612827,
2005-06-10, 01:11:00,VALID,915.297,VALID,0,VALID,97.9161,VALID,-0.0509425,VALID,20.401,VALID,99,VALID,0.488991,
2005-06-10, 01:12:00,VALID,915.302,VALID,0,VALID,98.075,VALID,-0.0339617,VALID,20.4238,VALID,99,VALID,0.527439,
2005-06-10, 01:13:00,VALID,915.309,VALID,0,VALID,97.6236,VALID,-0.0339617,VALID,20.4074,VALID,99,VALID,0.557546,
2005-06-10, 01:14:00,VALID,915.338,VALID,0,VALID,97.3795,VALID,-0.0339617,VALID,20.3552,VALID,73,VALID,0.712462,
2005-06-10, 01:15:00,VALID,915.345,VALID,0,VALID,97.6821,VALID,-0.0509425,VALID,20.3103,VALID,66,VALID,0.830412,
2005-06-10, 01:16:00,VALID,915.358,VALID,0,VALID,98.1908,VALID,-0.0169808,VALID,20.317,VALID,66,VALID,0.685547,
2005-06-10, 01:17:00,VALID,915.363,VALID,0,VALID,98.1819,VALID,-0.0509425,VALID,20.362,VALID,66,VALID,0.510352,
2005-06-10, 01:18:00,VALID,915.348,VALID,0,VALID,98.0445,VALID,-0.0339617,VALID,20.4114,VALID,70,VALID,0.418064,
2005-06-10, 01:19:00,VALID,915.331,VALID,0,VALID,97.8462,VALID,-0.0509425,VALID,20.4437,VALID,71,VALID,0.354288,
2005-06-10, 01:20:00,VALID,915.306,VALID,0,VALID,97.6961,VALID,-0.0679233,VALID,20.4561,VALID,93,VALID,0.557575,
2005-06-10, 01:21:00,VALID,915.286,VALID,0,VALID,97.5944,VALID,-0.0509425,VALID,20.4914,VALID,149,VALID,0.763494,
2005-06-10, 01:22:00,VALID,915.254,VALID,0,VALID,97.3362,VALID,-0.0509425,VALID,20.5145,VALID,142,VALID,0.421196,
2005-06-10, 01:23:00,VALID,915.23,VALID,0,VALID,96.9497,VALID,0.0509425,VALID,20.503,VALID,125,VALID,0.531076,
2005-06-10, 01:24:00,VALID,915.213,VALID,0,VALID,96.9865,VALID,0.0509425,VALID,20.471,VALID,105,VALID,0.575802,
2005-06-10, 01:25:00,VALID,915.196,VALID,0,VALID,97.4316,VALID,0.0679233,VALID,20.4772,VALID,105,VALID,0.492588,
2005-06-10, 01:26:00,VALID,915.2,VALID,0,VALID,97.2956,VALID,0.0339617,VALID,20.4831,VALID,105,VALID,0.680246,
2005-06-10, 01:27:00,VALID,915.188,VALID,0,VALID,97.3337,VALID,0.0509425,VALID,20.4769,VALID,103,VALID,0.778201,
2005-06-10, 01:28:00,VALID,915.183,VALID,0,VALID,97.4062,VALID,0.101885,VALID,20.5065,VALID,105,VALID,0.656597,
2005-06-10, 01:29:00,VALID,915.189,VALID,0,VALID,97.1887,VALID,0.0339617,VALID,20.5318,VALID,111,VALID,0.900298,
2005-06-10, 01:30:00,VALID,915.166,VALID,0,VALID,96.9484,VALID,0.0849042,VALID,20.5838,VALID,113,VALID,0.800781,
2005-06-10, 01:31:00,VALID,915.154,VALID,0,VALID,96.7462,VALID,0.0679233,VALID,20.6421,VALID,114,VALID,0.398624,
2005-06-10, 01:32:00,VALID,915.155,VALID,0,VALID,96.146,VALID,0.0849042,VALID,20.6637,VALID,114,VALID,0.394985,
2005-06-10, 01:33:00,VALID,915.144,VALID,0,VALID,95.9629,VALID,0.0849042,VALID,20.6769,VALID,114,VALID,0.508176,
2005-06-10, 01:34:00,VALID,915.145,VALID,0,VALID,96.0316,VALID,0.0509425,VALID,20.6998,VALID,114,VALID,0.446075,
2005-06-10, 01:35:00,VALID,915.139,VALID,0,VALID,95.9566,VALID,0.0679233,VALID,20.7221,VALID,122,VALID,0.601207,
2005-06-10, 01:36:00,VALID,915.132,VALID,0,VALID,95.9756,VALID,0.101885,VALID,20.745,VALID,128,VALID,0.561942,
2005-06-10, 01:37:00,VALID,915.128,VALID,0,VALID,95.8714,VALID,0.0849042,VALID,20.7843,VALID,128,VALID,0.196378,
2005-06-10, 01:38:00,VALID,915.125,VALID,0,VALID,95.6501,VALID,-0.0509425,VALID,20.8275,VALID,128,VALID,0.431362,
2005-06-10, 01:39:00,VALID,915.096,VALID,0,VALID,95.0995,VALID,-0.0169808,VALID,20.8502,VALID,128,VALID,0.351753,
2005-06-10, 01:40:00,VALID,915.118,VALID,0,VALID,95.2038,VALID,0,VALID,20.8628,VALID,128,VALID,0.40904,
2005-06-10, 01:41:00,VALID,915.096,VALID,0,VALID,94.9494,VALID,-0.0169808,VALID,20.9107,VALID,139,VALID,0.468369,
2005-06-10, 01:42:00,VALID,915.09,VALID,0,VALID,94.676,VALID,0,VALID,20.9498,VALID,210,VALID,0.420632,
2005-06-10, 01:43:00,VALID,915.098,VALID,0,VALID,93.3752,VALID,-0.0169808,VALID,20.9078,VALID,94,VALID,0.372456,
2005-06-10, 01:44:00,VALID,915.103,VALID,0,VALID,94.5514,VALID,-0.0509425,VALID,20.8469,VALID,89,VALID,0.500363,
2005-06-10, 01:45:00,VALID,915.095,VALID,0,VALID,95.1745,VALID,-0.0339617,VALID,20.8176,VALID,105,VALID,0.267113,
2005-06-10, 01:46:00,VALID,915.086,VALID,0,VALID,94.9838,VALID,-0.0339617,VALID,20.8114,VALID,105,VALID,0.437863,
2005-06-10, 01:47:00,VALID,915.058,VALID,0,VALID,95.2406,VALID,-0.0339617,VALID,20.8049,VALID,156,VALID,0.650856,
2005-06-10, 01:48:00,VALID,915.04,VALID,0,VALID,95.3576,VALID,-0.0679233,VALID,20.8434,VALID,159,VALID,0.0801235,
2005-06-10, 01:49:00,VALID,915.021,VALID,0,VALID,95.0868,VALID,-0.0169808,VALID,20.8889,VALID,159,VALID,0.245094,
2005-06-10, 01:50:00,VALID,915.02,VALID,0,VALID,94.7829,VALID,-0.0169808,VALID,20.8983,VALID,159,VALID,0.259055,
2005-06-10, 01:51:00,VALID,915.004,VALID,0,VALID,94.5934,VALID,-0.0169808,VALID,20.8752,VALID,152,VALID,0.439258,
2005-06-10, 01:52:00,VALID,914.981,VALID,0,VALID,94.7307,VALID,-0.0169808,VALID,20.8337,VALID,150,VALID,0.459239,
2005-06-10, 01:53:00,VALID,914.977,VALID,0,VALID,94.8134,VALID,-0.0509425,VALID,20.8273,VALID,149,VALID,0.307884,
2005-06-10, 01:54:00,VALID,914.961,VALID,0,VALID,94.9749,VALID,-0.0339617,VALID,20.7815,VALID,161,VALID,0.611793,
2005-06-10, 01:55:00,VALID,914.943,VALID,0,VALID,95.4466,VALID,-0.0169808,VALID,20.7788,VALID,167,VALID,0.921376,
2005-06-10, 01:56:00,VALID,914.933,VALID,0,VALID,94.9825,VALID,-0.0339617,VALID,20.8499,VALID,165,VALID,0.212936,
2005-06-10, 01:57:00,VALID,914.916,VALID,0,VALID,94.6621,VALID,-0.101885,VALID,20.8889,VALID,165,VALID,0.0158026,
2005-06-10, 01:58:00,VALID,914.898,VALID,0,VALID,94.5311,VALID,-0.0679233,VALID,20.9371,VALID,165,VALID,0.193051,
2005-06-10, 01:59:00,VALID,914.913,VALID,0,VALID,94.3607,VALID,-0.0509425,VALID,20.9629,VALID,165,VALID,0.341146,
2005-06-10, 02:00:00,VALID,914.91,VALID,0,VALID,94.3098,VALID,-0.0509425,VALID,20.9928,VALID,165,VALID,0.47154,
2005-06-10, 02:01:00,VALID,914.894,VALID,0,VALID,94.3035,VALID,-0.0339617,VALID,20.9734,VALID,165,VALID,0.363281,
2005-06-10, 02:02:00,VALID,914.895,VALID,0,VALID,94.2691,VALID,-0.0339617,VALID,20.9632,VALID,165,VALID,0.192454,
2005-06-10, 02:03:00,VALID,914.89,VALID,0,VALID,94.0746,VALID,-0.0339617,VALID,20.9664,VALID,165,VALID,0.126389,
2005-06-10, 02:04:00,VALID,914.89,VALID,0,VALID,94.1178,VALID,-0.0679233,VALID,20.953,VALID,170,VALID,0.522195,
2005-06-10, 02:05:00,VALID,914.899,VALID,0,VALID,94.0937,VALID,-0.0169808,VALID,20.9535,VALID,179,VALID,0.302871,
2005-06-10, 02:06:00,VALID,914.892,VALID,0,VALID,93.4833,VALID,-0.0509425,VALID,20.9172,VALID,179,VALID,0.00577446,
2005-06-10, 02:07:00,VALID,914.878,VALID,0,VALID,92.9212,VALID,-0.0339617,VALID,20.8149,VALID,179,VALID,0,
2005-06-10, 02:08:00,VALID,914.867,VALID,0,VALID,93.8457,VALID,-0.0339617,VALID,20.718,VALID,179,VALID,0,
2005-06-10, 02:09:00,VALID,914.877,VALID,0,VALID,94.0453,VALID,-0.0339617,VALID,20.6407,VALID,179,VALID,0,
2005-06-10, 02:10:00,VALID,914.873,VALID,0,VALID,94.7562,VALID,-0.0509425,VALID,20.5923,VALID,179,VALID,0,
2005-06-10, 02:11:00,VALID,914.862,VALID,0,VALID,95.0105,VALID,-0.0169808,VALID,20.5468,VALID,179,VALID,0.146984,
2005-06-10, 02:12:00,VALID,914.846,VALID,0,VALID,95.4899,VALID,-0.0169808,VALID,20.4879,VALID,178,VALID,0.432594,
2005-06-10, 02:13:00,VALID,914.816,VALID,0,VALID,96.01,VALID,-0.0679233,VALID,20.4887,VALID,176,VALID,0.421512,
2005-06-10, 02:14:00,VALID,914.783,VALID,0,VALID,96.0316,VALID,-0.0509425,VALID,20.4984,VALID,176,VALID,0.402832,
2005-06-10, 02:15:00,VALID,914.777,VALID,0,VALID,94.8515,VALID,-0.0339617,VALID,20.4822,VALID,59,VALID,0.541243,
2005-06-10, 02:16:00,VALID,914.766,VALID,0,VALID,94.9609,VALID,-0.0339617,VALID,20.3687,VALID,41,VALID,0.0198171,
2005-06-10, 02:17:00,VALID,914.756,VALID,0,VALID,96.1536,VALID,-0.0509425,VALID,20.3689,VALID,41,VALID,0,
2005-06-10, 02:18:00,VALID,914.752,VALID,0,VALID,96.5161,VALID,0,VALID,20.4077,VALID,41,VALID,0,
2005-06-10, 02:19:00,VALID,914.743,VALID,0,VALID,96.5084,VALID,-0.0509425,VALID,20.4305,VALID,41,VALID,0.0205305,
2005-06-10, 02:20:00,VALID,914.765,VALID,0,VALID,96.4957,VALID,-0.0679233,VALID,20.4755,VALID,41,VALID,0.354403,
2005-06-10, 02:21:00,VALID,914.792,VALID,0,VALID,96.0456,VALID,-0.0339617,VALID,20.5277,VALID,44,VALID,0.311435,
2005-06-10, 02:22:00,VALID,914.813,VALID,0,VALID,95.4848,VALID,-0.0509425,VALID,20.557,VALID,47,VALID,0.482279,
2005-06-10, 02:23:00,VALID,914.798,VALID,0,VALID,95.308,VALID,0,VALID,20.5433,VALID,47,VALID,0.0617733,
2005-06-10, 02:24:00,VALID,914.794,VALID,0,VALID,95.2928,VALID,-0.0339617,VALID,20.5239,VALID,265,VALID,0.689918,
2005-06-10, 02:25:00,VALID,914.798,VALID,0,VALID,95.7035,VALID,-0.0339617,VALID,20.5471,VALID,175,VALID,0.898271,
2005-06-10, 02:26:00,VALID,914.827,VALID,0,VALID,95.6323,VALID,-0.0339617,VALID,20.5947,VALID,165,VALID,0.519345,
2005-06-10, 02:27:00,VALID,914.828,VALID,0,VALID,95.3195,VALID,-0.0169808,VALID,20.6728,VALID,165,VALID,0.0399503,
2005-06-10, 02:28:00,VALID,914.837,VALID,0,VALID,94.6099,VALID,-0.0169808,VALID,20.7008,VALID,165,VALID,0.0806021,
2005-06-10, 02:29:00,VALID,914.857,VALID,0,VALID,94.0174,VALID,-0.0169808,VALID,20.6432,VALID,165,VALID,0.284979,
2005-06-10, 02:30:00,VALID,914.841,VALID,0,VALID,94.5324,VALID,-0.0169808,VALID,20.6017,VALID,165,VALID,0.228659,
2005-06-10, 02:31:00,VALID,914.838,VALID,0,VALID,95.2394,VALID,-0.0339617,VALID,20.5786,VALID,173,VALID,0.814844,
2005-06-10, 02:32:00,VALID,914.854,VALID,0,VALID,95.5992,VALID,-0.0169808,VALID,20.627,VALID,175,VALID,0.440407,
2005-06-10, 02:33:00,VALID,914.841,VALID,0,VALID,95.3831,VALID,-0.0339617,VALID,20.6631,VALID,168,VALID,0.411776,
2005-06-10, 02:34:00,VALID,914.832,VALID,0,VALID,94.9215,VALID,-0.0339617,VALID,20.7048,VALID,134,VALID,0.746982,
2005-06-10, 02:35:00,VALID,914.798,VALID,0,VALID,94.0008,VALID,-0.0169808,VALID,20.8343,VALID,135,VALID,0.494004,
2005-06-10, 02:36:00,VALID,914.786,VALID,0,VALID,93.1196,VALID,-0.0339617,VALID,21.0241,VALID,51,VALID,0.333452,
2005-06-10, 02:37:00,VALID,914.782,VALID,0,VALID,92.424,VALID,-0.0169808,VALID,21.1699,VALID,48,VALID,0.24375,
2005-06-10, 02:38:00,VALID,914.765,VALID,0,VALID,92.3872,VALID,0,VALID,21.1923,VALID,61,VALID,0.113095,
2005-06-10, 02:39:00,VALID,914.779,VALID,0,VALID,92.1316,VALID,-0.0169808,VALID,21.2122,VALID,74,VALID,0.705966,
2005-06-10, 02:40:00,VALID,914.781,VALID,0,VALID,92.0947,VALID,-0.0339617,VALID,21.2144,VALID,102,VALID,0.774164,
2005-06-10, 02:41:00,VALID,914.725,VALID,0,VALID,91.9205,VALID,0,VALID,21.2569,VALID,123,VALID,0.418968,
2005-06-10, 02:42:00,VALID,914.757,VALID,0,VALID,91.7247,VALID,-0.0339617,VALID,21.3051,VALID,146,VALID,0.719993,
2005-06-10, 02:43:00,VALID,914.762,VALID,0,VALID,91.6115,VALID,-0.0509425,VALID,21.3702,VALID,100,VALID,0.742188,
2005-06-10, 02:44:00,VALID,914.721,VALID,0,VALID,91.4449,VALID,0,VALID,21.3955,VALID,107,VALID,0.578852,
2005-06-10, 02:45:00,VALID,914.739,VALID,0,VALID,91.4373,VALID,-0.0169808,VALID,21.4246,VALID,143,VALID,0.770461,
2005-06-10, 02:46:00,VALID,914.738,VALID,0,VALID,91.483,VALID,-0.0169808,VALID,21.4184,VALID,158,VALID,0.585938,
2005-06-10, 02:47:00,VALID,914.739,VALID,0,VALID,91.5708,VALID,0,VALID,21.395,VALID,170,VALID,0.722929,
2005-06-10, 02:48:00,VALID,914.723,VALID,0,VALID,91.5454,VALID,-0.0339617,VALID,21.3988,VALID,175,VALID,0.417039,
2005-06-10, 02:49:00,VALID,914.726,VALID,0,VALID,91.5237,VALID,0,VALID,21.4082,VALID,175,VALID,0.115734,
2005-06-10, 02:50:00,VALID,914.74,VALID,0,VALID,91.4385,VALID,0,VALID,21.4079,VALID,175,VALID,0,
2005-06-10, 02:51:00,VALID,914.716,VALID,0,VALID,91.3533,VALID,0,VALID,21.4243,VALID,176,VALID,0.395712,
2005-06-10, 02:52:00,VALID,914.737,VALID,0,VALID,91.1855,VALID,0,VALID,21.4469,VALID,176,VALID,0.439174,
2005-06-10, 02:53:00,VALID,914.728,VALID,0,VALID,91.0889,VALID,0.0169808,VALID,21.4596,VALID,176,VALID,0.31157,
2005-06-10, 02:54:00,VALID,914.726,VALID,0,VALID,91.0532,VALID,0,VALID,21.4661,VALID,176,VALID,0.395167,
2005-06-10, 02:55:00,VALID,914.722,VALID,0,VALID,91.0075,VALID,-0.0169808,VALID,21.4658,VALID,176,VALID,0.281808,
2005-06-10, 02:56:00,VALID,914.705,VALID,0,VALID,91.0443,VALID,0,VALID,21.486,VALID,176,VALID,0.10174,
2005-06-10, 02:57:00,VALID,914.712,VALID,0,VALID,91.5975,VALID,0,VALID,21.4663,VALID,174,VALID,0.268173,
2005-06-10, 02:58:00,VALID,914.706,VALID,0,VALID,91.9675,VALID,0,VALID,21.3753,VALID,85,VALID,0.402004,
2005-06-10, 02:59:00,VALID,914.685,VALID,0,VALID,92.0693,VALID,0,VALID,21.2722,VALID,82,VALID,0.501562,
2005-06-10, 03:00:00,VALID,914.689,VALID,0,VALID,92.1354,VALID,0,VALID,21.3013,VALID,65,VALID,0.475632,
2005-06-10, 03:01:00,VALID,914.692,VALID,0,VALID,92.3884,VALID,0,VALID,21.2634,VALID,65,VALID,0.309896,
2005-06-10, 03:02:00,VALID,914.681,VALID,0,VALID,92.6135,VALID,-0.0169808,VALID,21.1853,VALID,65,VALID,0.426258,
2005-06-10, 03:03:00,VALID,914.721,VALID,0,VALID,92.6656,VALID,0,VALID,21.1826,VALID,65,VALID,0.227289,
2005-06-10, 03:04:00,VALID,914.719,VALID,0,VALID,92.7814,VALID,-0.0339617,VALID,21.1691,VALID,74,VALID,0.272372,
2005-06-10, 03:05:00,VALID,914.728,VALID,0,VALID,92.9416,VALID,0,VALID,21.1237,VALID,103,VALID,0.49907,
2005-06-10, 03:06:00,VALID,914.72,VALID,0,VALID,93.0141,VALID,0,VALID,21.0881,VALID,103,VALID,0.303354,
2005-06-10, 03:07:00,VALID,914.74,VALID,0,VALID,92.6809,VALID,0,VALID,21.1075,VALID,66,VALID,1.1557,
2005-06-10, 03:08:00,VALID,914.734,VALID,0,VALID,91.9027,VALID,0,VALID,21.2561,VALID,32,VALID,1.59043,
2005-06-10, 03:09:00,VALID,914.754,VALID,0,VALID,91.6484,VALID,0,VALID,21.3301,VALID,49,VALID,0.37309,
2005-06-10, 03:10:00,VALID,914.75,VALID,0,VALID,91.5326,VALID,0,VALID,21.3204,VALID,49,VALID,0.139236,
2005-06-10, 03:11:00,VALID,914.742,VALID,0,VALID,91.464,VALID,0,VALID,21.3266,VALID,49,VALID,0,
2005-06-10, 03:12:00,VALID,914.713,VALID,0,VALID,91.436,VALID,0,VALID,21.3463,VALID,32,VALID,0.113814,
2005-06-10, 03:13:00,VALID,914.688,VALID,0,VALID,91.2376,VALID,0,VALID,21.3974,VALID,224,VALID,0.638822,
2005-06-10, 03:14:00,VALID,914.662,VALID,0,VALID,91.1067,VALID,0,VALID,21.4176,VALID,164,VALID,1.11828,
2005-06-10, 03:15:00,VALID,914.654,VALID,0,VALID,90.9858,VALID,0.0169808,VALID,21.4265,VALID,169,VALID,0.568598,
2005-06-10, 03:16:00,VALID,914.668,VALID,0,VALID,91.141,VALID,0.0169808,VALID,21.4335,VALID,129,VALID,0.599254,
2005-06-10, 03:17:00,VALID,914.661,VALID,0,VALID,91.2414,VALID,0,VALID,21.388,VALID,121,VALID,0.333031,
2005-06-10, 03:18:00,VALID,914.629,VALID,0,VALID,91.2211,VALID,0.0339617,VALID,21.3393,VALID,48,VALID,1.02188,
2005-06-10, 03:19:00,VALID,914.636,VALID,0,VALID,91.1995,VALID,0.0169808,VALID,21.3301,VALID,58,VALID,1.21822,
2005-06-10, 03:20:00,VALID,914.618,VALID,0,VALID,91.0863,VALID,0.0169808,VALID,21.3226,VALID,93,VALID,0.732244,
2005-06-10, 03:21:00,VALID,914.594,VALID,0,VALID,90.5204,VALID,0,VALID,21.3974,VALID,88,VALID,1.81362,
2005-06-10, 03:22:00,VALID,914.601,VALID,0,VALID,90.1593,VALID,0,VALID,21.4946,VALID,25,VALID,1.46875,
2005-06-10, 03:23:00,VALID,914.612,VALID,0,VALID,89.9673,VALID,0.0339617,VALID,21.5662,VALID,33,VALID,0.219131,
2005-06-10, 03:24:00,VALID,914.601,VALID,0,VALID,90.0207,VALID,0.0169808,VALID,21.5589,VALID,33,VALID,0.140067,
2005-06-10, 03:25:00,VALID,914.619,VALID,0,VALID,90.0436,VALID,0.0509425,VALID,21.5202,VALID,33,VALID,0.224254,
2005-06-10, 03:26:00,VALID,914.59,VALID,0,VALID,90.1758,VALID,0.0339617,VALID,21.5099,VALID,33,VALID,0.164807,
2005-06-10, 03:27:00,VALID,914.596,VALID,0,VALID,90.2343,VALID,0.0169808,VALID,21.5008,VALID,33,VALID,0.00609756,
2005-06-10, 03:28:00,VALID,914.608,VALID,0,VALID,90.4403,VALID,0,VALID,21.4846,VALID,33,VALID,0.147892,
2005-06-10, 03:29:00,VALID,914.593,VALID,0,VALID,90.5802,VALID,0,VALID,21.4426,VALID,128,VALID,0.494496,
2005-06-10, 03:30:00,VALID,914.571,VALID,0,VALID,90.7112,VALID,0,VALID,21.4206,VALID,181,VALID,0.570503,
2005-06-10, 03:31:00,VALID,914.574,VALID,0,VALID,90.9032,VALID,0,VALID,21.3686,VALID,132,VALID,0.412919,
2005-06-10, 03:32:00,VALID,914.592,VALID,0,VALID,91.2821,VALID,0,VALID,21.2356,VALID,36,VALID,0.558398,
2005-06-10, 03:33:00,VALID,914.576,VALID,0,VALID,91.9345,VALID,0,VALID,21.139,VALID,47,VALID,0.340402,